�N����,����,�~����,�C��,���x,�C��,����,���ϕ���,�ő�u�ԕ���,�ő厞����,���˗�,�I�_���x,�n�����x,�ő啗���N��,DTYPE
"22/08/25","00:10",0.0,24.5,87.7,1000.8,346.7,1.3,2.1,338.7,0.00,22.4,26.4,"00:04:08",1
"22/08/25","00:20",0.0,24.5,87.9,1001.2,342.2,1.6,2.6,353.2,0.00,22.4,26.3,"00:15:52",1
"22/08/25","00:30",0.0,24.5,88.0,1000.8,328.9,2.1,4.2,342.1,0.00,22.4,26.2,"00:21:36",1
"22/08/25","00:40",0.0,24.5,88.0,1000.5,333.7,2.0,3.9,350.3,0.00,22.4,26.3,"00:33:28",1
"22/08/25","00:50",0.0,24.5,88.1,1000.8,334.7,2.0,3.1,348.9,0.00,22.4,26.3,"00:44:16",1
"22/08/25","01:00",0.0,24.5,88.2,1000.8,328.2,1.6,2.2,336.5,0.00,22.5,26.3,"00:55:28",1
"22/08/25","01:10",0.0,24.4,88.3,1000.8,327.9,1.5,2.9,327.1,0.00,22.4,26.0,"01:09:12",1
"22/08/25","01:20",0.0,24.4,88.4,1000.8,329.9,1.6,2.7,357.1,0.00,22.4,26.2,"01:17:44",1
"22/08/25","01:30",0.0,24.4,88.3,1000.3,323.7,1.7,2.6,320.0,0.00,22.4,26.2,"01:21:04",1
"22/08/25","01:40",0.0,24.5,88.3,1000.5,333.0,1.6,2.9,330.8,0.00,22.5,26.2,"01:32:24",1
"22/08/25","01:50",0.0,24.5,88.3,1000.3,332.0,1.3,2.9,352.8,0.00,22.5,26.3,"01:40:08",1
"22/08/25","02:00",0.0,24.4,88.4,1000.0,336.6,1.2,2.1,344.7,0.00,22.4,26.2,"01:51:12",1
"22/08/25","02:10",0.0,24.4,88.6,1000.0,320.2,1.3,2.0,314.8,0.00,22.4,25.9,"02:01:04",1
"22/08/25","02:20",0.0,24.4,88.7,999.8,310.1,1.5,2.1,327.2,0.00,22.5,26.0,"02:12:40",1
"22/08/25","02:30",0.0,24.4,88.8,1000.0,326.1,1.6,2.7,353.7,0.00,22.5,26.0,"02:20:40",1
"22/08/25","02:40",0.0,24.4,88.9,1000.0,318.7,1.6,3.2,326.9,0.00,22.5,26.0,"02:35:04",1
"22/08/25","02:50",0.0,24.4,88.9,1000.3,322.9,1.5,2.8,331.9,0.00,22.5,26.1,"02:40:48",1
"22/08/25","03:00",0.0,24.4,88.9,1000.0,318.8,1.3,2.1,317.1,0.00,22.5,26.1,"02:52:56",1
"22/08/25","03:10",0.0,24.4,88.9,1000.0,306.1,1.3,2.5,327.2,0.00,22.5,26.2,"03:01:28",1
"22/08/25","03:20",0.0,24.4,88.9,1000.5,292.6,1.1,2.1,309.3,0.00,22.5,25.9,"03:17:12",1
"22/08/25","03:30",0.0,24.4,89.0,999.8,304.7,1.2,2.2,329.9,0.00,22.5,25.9,"03:26:40",1
"22/08/25","03:40",0.0,24.4,89.0,999.8,322.1,1.2,2.0,343.7,0.00,22.5,26.0,"03:37:20",1
"22/08/25","03:50",0.0,24.3,89.1,999.6,299.0,0.8,1.3,318.7,0.00,22.4,26.0,"03:45:28",1
"22/08/25","04:00",0.0,24.2,89.3,999.8,289.7,0.8,1.6,311.0,0.00,22.4,25.9,"03:59:20",1
"22/08/25","04:10",0.0,24.2,89.4,1000.0,266.4,0.6,1.3,269.6,0.00,22.4,25.9,"04:09:12",1
"22/08/25","04:20",0.0,24.2,89.5,999.6,298.0,1.1,2.0,315.4,0.00,22.4,25.9,"04:15:04",1
"22/08/25","04:30",0.0,24.2,89.7,999.6,292.9,1.0,1.8,302.0,0.00,22.4,25.8,"04:29:20",1
"22/08/25","04:40",0.0,24.2,89.7,999.6,314.0,1.2,1.9,338.9,0.00,22.4,25.9,"04:32:16",1
"22/08/25","04:50",0.0,24.2,89.9,999.6,291.2,1.0,1.9,311.0,0.00,22.5,25.8,"04:43:52",1
"22/08/25","05:00",0.0,24.2,89.9,999.6,294.1,1.0,1.9,332.8,0.00,22.5,25.8,"04:56:16",1
"22/08/25","05:10",0.0,24.1,90.0,999.6,313.9,1.1,1.7,314.4,0.00,22.4,25.9,"05:04:32",1
"22/08/25","05:20",0.0,24.1,90.0,999.6,322.7,0.3,1.4,338.6,0.00,22.4,25.9,"05:10:56",1
"22/08/25","05:30",0.0,23.9,90.2,999.8,288.4,0.6,0.9,315.6,0.00,22.2,26.0,"05:20:56",1
"22/08/25","05:40",0.0,23.7,90.3,999.8,289.6,0.7,1.0,274.8,0.00,22.1,25.9,"05:30:32",1
"22/08/25","05:50",0.0,23.7,90.5,999.6,314.5,1.1,1.3,307.3,0.00,22.1,25.8,"05:42:48",1
"22/08/25","06:00",0.0,23.7,90.7,999.8,327.6,1.1,1.7,354.5,0.00,22.1,25.8,"05:52:24",1
"22/08/25","06:10",0.0,23.7,91.1,1000.0,296.7,0.8,1.4,307.9,0.00,22.2,25.7,"06:09:20",1
"22/08/25","06:20",0.0,23.6,91.2,1000.0,288.4,0.7,1.0,330.5,0.00,22.1,25.7,"06:10:24",1
"22/08/25","06:30",0.0,23.6,91.4,1000.0,301.5,0.8,1.3,335.9,0.00,22.2,25.9,"06:27:44",1
"22/08/25","06:40",0.0,23.7,91.6,999.8,310.4,0.8,1.2,320.2,0.00,22.3,25.8,"06:37:04",1
"22/08/25","06:50",0.0,23.9,91.7,1000.3,342.8,1.0,1.4,352.1,0.00,22.5,25.8,"06:43:20",1
"22/08/25","07:00",0.0,24.0,91.9,1000.0,322.7,0.8,1.6,328.1,0.01,22.6,25.8,"06:53:52",1
"22/08/25","07:10",0.0,24.3,92.1,1000.0,313.4,0.7,1.1,322.8,0.04,23.0,25.8,"07:07:20",1
"22/08/25","07:20",0.0,24.7,92.1,1000.0,300.0,0.8,1.4,303.7,0.05,23.4,25.8,"07:15:44",1
"22/08/25","07:30",0.0,25.2,91.9,1000.0,297.7,0.8,1.6,312.7,0.05,23.8,25.6,"07:25:04",1
"22/08/25","07:40",0.0,25.5,91.8,1000.0,294.2,0.6,1.2,319.4,0.04,24.1,25.6,"07:36:32",1
"22/08/25","07:50",0.0,25.9,91.5,1000.0,305.4,0.7,1.1,334.2,0.07,24.4,25.5,"07:42:00",1
"22/08/25","08:00",0.0,25.8,90.6,1000.5,298.8,1.0,1.6,258.9,0.09,24.2,25.7,"07:52:56",1
"22/08/25","08:10",0.0,26.0,89.7,1000.3,283.7,0.6,1.8,330.8,0.06,24.2,25.7,"08:00:16",1
"22/08/25","08:20",0.0,26.2,89.0,1000.0,288.9,0.6,1.1,309.9,0.08,24.3,25.7,"08:17:52",1
"22/08/25","08:30",0.0,26.7,88.0,1000.3,267.2,0.5,1.0,254.0,0.06,24.6,25.6,"08:24:24",1
"22/08/25","08:40",0.0,27.0,87.0,999.8,303.6,0.3,0.6,267.1,0.07,24.7,25.7,"08:33:04",1
"22/08/25","08:50",0.0,27.1,85.1,999.3,216.4,0.2,0.6,164.7,0.09,24.4,25.8,"08:46:48",1
"22/08/25","09:00",0.0,27.6,84.4,999.3,265.2,0.2,0.9,1.6,0.12,24.8,25.7,"08:58:24",1
"22/08/25","09:10",0.0,28.1,81.9,998.6,358.8,0.5,1.0,357.7,0.18,24.8,25.9,"09:02:16",1
"22/08/25","09:20",0.0,28.6,79.7,999.1,3.5,0.2,1.2,2.8,0.13,24.8,25.6,"09:10:48",1
"22/08/25","09:30",0.0,28.5,79.0,999.1,175.9,0.3,0.8,146.9,0.14,24.5,25.9,"09:24:40",1
"22/08/25","09:40",0.0,28.8,78.2,999.1,227.2,0.3,1.1,198.2,0.20,24.7,25.9,"09:36:32",1
"22/08/25","09:50",0.0,29.7,76.2,999.6,156.2,0.6,1.3,211.4,0.29,25.1,25.7,"09:48:56",1
"22/08/25","10:00",0.0,29.8,74.4,1000.3,245.9,0.3,1.2,342.2,0.19,24.8,25.6,"09:59:36",1
"22/08/25","10:10",0.0,29.6,73.1,1000.0,357.1,0.5,1.1,25.1,0.09,24.3,25.7,"10:02:32",1
"22/08/25","10:20",0.0,28.9,74.8,1000.0,206.0,0.3,1.2,212.9,0.04,24.0,25.8,"10:13:28",1
"22/08/25","10:30",0.0,28.8,76.3,999.8,265.5,0.3,1.0,243.9,0.08,24.3,26.0,"10:27:44",1
"22/08/25","10:40",0.0,29.1,76.8,999.8,308.0,0.5,1.0,251.8,0.12,24.6,26.0,"10:39:52",1
"22/08/25","10:50",0.0,29.1,76.5,999.8,265.0,0.3,1.2,359.7,0.08,24.6,26.0,"10:49:28",1
"22/08/25","11:00",0.0,29.1,76.5,999.8,347.6,0.8,1.8,352.7,0.09,24.6,25.8,"10:54:24",1
"22/08/25","11:10",0.0,29.4,75.6,999.6,339.3,0.5,1.4,348.9,0.14,24.7,25.9,"11:03:28",1
"22/08/25","11:20",0.0,29.8,75.3,999.8,266.9,0.6,1.4,345.6,0.18,25.0,25.7,"11:19:04",1
"22/08/25","11:30",0.0,30.1,74.2,1000.0,283.4,0.8,1.8,337.8,0.25,25.0,25.9,"11:25:20",1
"22/08/25","11:40",0.0,30.4,73.1,999.8,11.0,0.7,1.9,356.2,0.20,25.1,25.9,"11:38:48",1
"22/08/25","11:50",0.0,31.0,71.8,999.8,12.6,1.0,1.9,0.4,0.31,25.3,26.0,"11:42:08",1
"22/08/25","12:00",0.0,31.5,71.2,1000.0,12.7,0.6,2.0,54.9,0.32,25.7,25.9,"11:53:04",1
"22/08/25","12:10",0.0,32.5,69.1,1000.3,68.3,0.5,1.3,61.4,0.43,26.1,25.8,"12:07:04",1
"22/08/25","12:20",0.0,32.5,67.6,1000.5,83.8,0.7,2.4,53.0,0.32,25.8,26.2,"12:12:16",1
"22/08/25","12:30",0.0,32.2,70.0,1000.3,90.4,0.7,1.6,84.0,0.28,26.1,26.1,"12:21:52",1
"22/08/25","12:40",0.0,32.1,69.3,1000.3,81.5,0.8,1.7,101.4,0.31,25.8,26.2,"12:32:16",1
"22/08/25","12:50",0.0,32.0,68.6,1000.0,55.8,0.7,2.0,37.1,0.23,25.5,26.1,"12:45:36",1
"22/08/25","13:00",0.0,31.6,69.9,1000.0,51.6,0.8,2.2,28.5,0.18,25.5,26.5,"12:59:12",1
"22/08/25","13:10",0.0,31.7,71.1,999.6,59.7,0.5,1.9,20.9,0.18,25.9,26.2,"13:05:28",1
"22/08/25","13:20",0.0,31.4,72.3,999.3,342.2,1.1,2.2,345.5,0.14,25.8,26.3,"13:12:32",1
"22/08/25","13:30",0.0,31.5,73.6,999.1,332.4,1.0,2.4,312.6,0.21,26.2,26.3,"13:22:40",1
"22/08/25","13:40",0.0,32.2,72.0,999.6,346.0,0.8,1.8,341.5,0.33,26.5,26.3,"13:31:44",1
"22/08/25","13:50",0.0,32.4,69.1,999.6,355.9,0.8,2.0,353.8,0.22,26.0,26.4,"13:49:04",1
"22/08/25","14:00",0.0,32.5,69.2,999.3,341.7,0.5,1.9,345.6,0.21,26.2,26.4,"13:50:48",1
"22/08/25","14:10",0.0,32.2,69.1,999.3,326.7,0.6,1.6,7.5,0.16,25.9,26.5,"14:07:44",1
"22/08/25","14:20",0.0,31.9,70.5,999.1,338.8,1.0,2.4,323.9,0.12,25.9,26.5,"14:16:08",1
"22/08/25","14:30",0.0,30.9,72.6,998.9,323.7,1.7,3.5,349.3,0.12,25.4,26.4,"14:24:16",1
"22/08/25","14:40",0.0,30.5,74.8,997.9,321.5,1.5,4.3,306.0,0.12,25.6,26.7,"14:38:40",1
"22/08/25","14:50",0.0,30.5,76.8,997.9,322.7,1.7,3.4,354.1,0.26,26.0,26.5,"14:40:56",1
"22/08/25","15:00",0.0,30.9,75.2,997.9,303.1,1.8,3.5,359.4,0.31,26.0,26.7,"14:57:20",1
"22/08/25","15:10",0.0,31.0,74.2,997.9,298.4,1.6,4.8,333.0,0.22,25.9,26.7,"15:09:12",1
"22/08/25","15:20",0.0,30.5,75.2,997.9,331.0,1.8,6.3,339.7,0.08,25.6,26.6,"15:12:32",1
"22/08/25","15:30",0.4,30.1,77.6,997.0,294.8,1.1,2.6,356.2,0.05,25.8,26.7,"15:20:24",1
"22/08/25","15:40",1.8,29.3,80.4,996.5,268.9,0.6,1.4,232.9,0.04,25.6,26.5,"15:36:08",1
"22/08/25","15:50",0.0,29.7,82.7,995.8,30.8,0.7,1.7,339.5,0.11,26.5,26.6,"15:46:00",1
"22/08/25","16:00",0.0,29.7,84.4,996.0,14.7,0.6,2.0,359.0,0.13,26.8,26.7,"15:52:16",1
"22/08/25","16:10",0.0,29.7,83.4,996.3,278.3,0.7,1.7,335.2,0.25,26.6,26.6,"16:08:16",1
"22/08/25","16:20",0.0,30.7,80.3,997.2,320.9,1.3,3.5,348.8,0.28,27.0,26.6,"16:14:24",1
"22/08/25","16:30",0.0,31.0,76.1,997.4,300.3,1.3,3.7,348.5,0.22,26.3,26.7,"16:24:40",1
"22/08/25","16:40",0.0,31.1,75.1,997.4,301.4,1.5,3.3,308.5,0.18,26.2,26.8,"16:36:00",1
"22/08/25","16:50",0.0,31.4,73.9,997.4,290.3,1.5,4.3,325.8,0.21,26.2,26.6,"16:40:32",1
"22/08/25","17:00",0.0,31.8,73.8,997.4,269.9,1.1,2.5,259.3,0.17,26.6,26.7,"16:54:56",1
"22/08/25","17:10",0.0,31.8,73.0,997.9,290.5,1.1,2.0,291.8,0.14,26.4,26.8,"17:02:08",1
"22/08/25","17:20",0.0,31.8,72.8,998.4,293.7,1.0,3.2,336.5,0.11,26.4,26.8,"17:10:40",1
"22/08/25","17:30",0.0,31.4,71.5,997.9,289.5,1.2,3.3,239.4,0.08,25.7,26.9,"17:24:40",1
"22/08/25","17:40",0.0,31.1,71.4,997.9,279.0,1.1,2.5,237.4,0.05,25.4,26.7,"17:34:08",1
"22/08/25","17:50",0.0,30.6,73.2,997.9,305.2,1.2,2.7,344.4,0.02,25.3,26.8,"17:49:20",1
"22/08/25","18:00",0.0,30.6,74.1,997.7,315.3,1.1,2.6,321.1,0.04,25.5,26.8,"17:50:56",1
"22/08/25","18:10",0.0,30.5,74.0,997.4,296.7,1.0,2.4,248.2,0.02,25.4,26.8,"18:04:32",1
"22/08/25","18:20",0.0,30.1,74.9,997.7,338.3,1.0,2.1,347.0,0.00,25.2,27.1,"18:18:40",1
"22/08/25","18:30",0.0,29.7,77.3,997.2,343.2,1.2,1.8,354.7,0.00,25.3,26.7,"18:23:20",1
"22/08/25","18:40",0.0,29.0,79.0,996.7,335.0,1.1,2.1,332.7,0.00,25.0,27.0,"18:39:04",1
"22/08/25","18:50",0.0,28.5,80.4,997.4,324.4,1.1,2.0,337.9,0.00,24.8,26.8,"18:45:52",1
"22/08/25","19:00",0.0,28.2,81.3,997.2,317.6,1.1,2.4,306.1,0.00,24.7,26.8,"18:52:00",1
"22/08/25","19:10",0.0,28.0,82.2,997.4,310.8,1.1,1.9,335.5,0.00,24.7,26.8,"19:05:44",1
"22/08/25","19:20",0.0,27.5,83.1,997.4,322.8,1.0,1.4,336.2,0.00,24.4,26.8,"19:10:48",1
"22/08/25","19:30",0.0,27.3,84.1,997.7,321.8,1.1,1.8,342.2,0.00,24.4,26.8,"19:26:16",1
"22/08/25","19:40",0.0,27.1,85.0,998.2,335.8,0.8,1.7,339.2,0.00,24.4,26.9,"19:32:40",1
"22/08/25","19:50",0.0,27.0,85.8,998.2,340.2,1.1,1.6,342.3,0.00,24.5,26.7,"19:45:20",1
"22/08/25","20:00",0.0,26.8,86.7,998.4,316.0,1.1,1.7,352.3,0.00,24.4,26.8,"19:56:56",1
"22/08/25","20:10",0.0,26.9,87.2,998.6,293.7,1.0,1.8,309.3,0.00,24.6,26.7,"20:00:16",1
"22/08/25","20:20",0.0,26.7,87.4,998.9,311.8,1.0,1.8,319.3,0.00,24.5,26.9,"20:13:20",1
"22/08/25","20:30",0.0,26.8,87.7,999.1,311.9,1.0,1.7,316.1,0.00,24.6,26.5,"20:28:08",1
"22/08/25","20:40",0.0,26.6,88.0,999.1,294.1,1.0,1.8,306.5,0.00,24.5,26.7,"20:30:56",1
"22/08/25","20:50",0.0,26.6,88.2,999.3,277.5,0.8,1.4,285.6,0.00,24.5,26.7,"20:40:16",1
"22/08/25","21:00",0.0,26.6,88.3,999.3,320.6,0.8,1.8,353.1,0.00,24.5,26.7,"20:59:20",1
"22/08/25","21:10",0.0,26.9,88.5,999.6,330.1,1.3,2.1,305.6,0.00,24.9,26.6,"21:05:52",1
"22/08/25","21:20",0.0,26.9,88.6,999.3,335.3,1.0,1.3,352.7,0.00,24.9,26.6,"21:14:56",1
"22/08/25","21:30",0.0,26.8,88.7,999.6,335.9,1.0,1.6,316.7,0.00,24.8,26.6,"21:28:40",1
"22/08/25","21:40",0.0,26.8,88.9,999.6,321.5,1.2,1.9,344.1,0.00,24.9,26.6,"21:34:00",1
"22/08/25","21:50",0.0,26.8,89.0,999.6,325.5,1.2,2.0,350.7,0.00,24.9,26.6,"21:40:24",1
"22/08/25","22:00",0.0,26.8,89.0,999.6,337.1,1.3,2.4,354.7,0.00,24.9,26.6,"21:50:24",1
"22/08/25","22:10",0.0,26.8,89.1,999.3,330.2,1.1,1.9,337.1,0.00,24.9,26.4,"22:01:12",1
"22/08/25","22:20",0.0,26.8,89.2,999.3,346.4,1.0,1.7,338.4,0.00,24.9,26.5,"22:13:36",1
"22/08/25","22:30",0.0,26.7,89.2,999.3,336.6,1.1,2.4,345.3,0.00,24.8,26.5,"22:22:56",1
"22/08/25","22:40",0.0,26.6,89.3,999.3,343.4,1.0,1.6,336.9,0.00,24.7,26.6,"22:35:12",1
"22/08/25","22:50",0.0,26.6,89.3,999.6,330.0,1.0,1.3,333.0,0.00,24.7,26.7,"22:45:36",1
"22/08/25","23:00",0.0,26.4,89.4,999.3,322.9,1.5,2.7,351.8,0.00,24.6,26.6,"22:56:24",1
"22/08/25","23:10",0.0,26.3,89.5,999.3,323.0,1.2,1.8,320.6,0.00,24.5,26.6,"23:04:00",1
"22/08/25","23:20",0.0,26.3,89.5,999.3,319.8,1.1,2.1,329.9,0.00,24.5,26.6,"23:13:04",1
"22/08/25","23:30",0.0,26.2,89.4,999.6,310.0,1.3,2.2,329.8,0.00,24.4,26.6,"23:27:04",1
"22/08/25","23:40",0.0,26.2,89.2,999.6,316.5,1.3,2.6,328.7,0.00,24.3,26.4,"23:33:28",1
"22/08/25","23:50",0.0,26.2,89.1,999.8,334.3,0.8,1.8,350.5,0.00,24.3,26.4,"23:49:52",1
"22/08/25","24:00",0.0,26.1,89.0,999.6,328.7,1.1,2.1,1.1,0.00,24.2,26.4,"23:52:08",1
